[[{"header":{"parameterUnit":"m.s-1","parameterCategory":1,"la1":30.2991,"la2":30.254,"lo1":-89.0895,"lo2":-89.0444,"dy":0.0017,"dx":0.0017,"nx":28,"ny":28,"refTime":"2023-09-26T21:00:00:Z","depth":0,"parameterNumber":2,"parameterNumberName":"U-component_of_WINDS"},"data":[0,0,0,0,0,0,0,0,0,0,0,0,0,0,0,0,0,0,0,0,0,0,0,0,0,0,0,0,0,0,0,0,0,0,0,0,0,0,0,0,0,0,0,0,0,0,0,0,0,0,0,0,0,0,0,0,0,0,-2.8695,-2.8695,0,-2.8686,-2.8686,-2.8686,-2.8615,-2.8614,-2.8612,-2.861,-2.8602,-2.8604,-2.8605,0,0,0,0,0,0,0,0,0,0,0,0,0,-2.865,-2.8651,-2.8695,-2.8695,-2.8694,-2.8686,-2.8686,-2.8686,-2.8616,-2.8613,-2.8611,-2.8609,-2.8602,-2.8604,-2.8605,0,0,0,0,0,0,0,0,0,0,0,0,0,-2.8658,-2.8652,-2.8695,-2.8658,-2.8655,-2.8686,-2.8686,-2.8686,-2.8616,-2.8613,-2.8611,-2.8608,-2.8601,-2.8603,-2.8605,-2.8671,0,0,-2.8612,-2.8613,0,0,0,0,0,0,0,0,-2.8658,-2.866,-2.8664,-2.8661,-2.8657,-2.8649,-2.8667,-2.8681,-2.8617,-2.8631,-2.861,-2.8607,-2.862,-2.862,-2.8625,-2.8671,-2.8671,-2.8612,-2.8613,-2.8614,-2.8615,0,0,0,0,0,0,0,-2.8657,-2.866,-2.8691,-2.8664,-2.866,-2.8642,-2.8641,-2.867,-2.864,-2.8629,-2.8624,-2.8624,-2.8618,-2.8623,-2.8624,-2.8671,-2.8612,-2.8614,-2.8615,-2.8616,-2.8769,-2.8771,0,0,0,0,0,0,-2.8662,-2.866,-2.8692,-2.8691,-2.8651,-2.8645,-2.8643,-2.8654,-2.864,-2.8635,-2.8626,-2.8621,-2.862,-2.8622,-2.8623,-2.8697,-2.8614,-2.8616,-2.8618,-2.8766,-2.8769,-2.8772,0,0,0,0,0,0,-2.8661,-2.8665,-2.8692,-2.8674,-2.8676,-2.8649,-2.8662,-2.8656,-2.866,-2.8638,-2.8632,-2.8637,-2.8618,-2.862,-2.8659,-2.8696,-2.8617,-2.8619,-2.8763,-2.8767,-2.8771,-2.8848,0,0,0,0,0,0,-2.866,-2.8666,-2.869,-2.8675,-2.8677,-2.8728,-2.8664,-2.8657,-2.8664,-2.8657,-2.8646,-2.8642,-2.8617,-2.8657,-2.8662,-2.8698,-2.8621,-2.8759,-2.8765,-2.8769,-2.8842,-2.8854,-2.8865,0,0,0,0,0,-2.8659,-2.8713,-2.8692,-2.8696,-2.8708,-2.873,-2.8732,-2.8701,-2.8668,-2.8692,-2.8677,-2.8642,-2.8692,-2.8661,-2.8666,-2.8704,-2.8757,-2.8763,-2.8769,-2.8837,-2.8852,-2.8864,0,0,0,0,0,0,-2.8733,-2.871,-2.8687,-2.8737,-2.8736,-2.8718,-2.8748,-2.8719,-2.8727,-2.872,-2.8683,-2.8681,-2.8725,-2.8719,-2.8685,-2.8766,-2.8718,-2.8726,-2.8768,-2.8782,-2.8793,-2.8793,-2.8623,0,0,0,0,0,-2.8756,-2.8776,-2.8755,-2.8802,-2.8802,-2.8776,-2.8785,-2.8761,-2.8759,-2.8758,-2.8746,-2.8745,-2.876,-2.8771,-2.8785,-2.8842,-2.8837,-2.887,-2.8881,-2.8891,-2.8897,-2.8925,-2.8938,-2.8793,-2.8793,-2.8793,0,0,-2.8802,-2.8792,-2.8807,-2.8816,-2.8813,-2.8834,-2.8776,-2.8801,-2.8816,-2.8762,-2.8797,-2.8789,-2.8785,-2.8833,-2.8854,-2.8829,-2.8936,-2.8899,-2.8906,-2.8907,-2.8932,-2.8946,-2.8958,-2.8797,-2.8796,-2.8795,0,0,-2.8896,-2.8892,-2.8929,-2.8926,-2.8922,-2.8903,-2.8913,-2.8899,-2.8891,-2.8926,-2.8885,-2.8904,-2.8931,-2.893,-2.8933,-2.9027,-2.8994,-2.9033,-2.9091,-2.9119,-2.913,-2.914,-2.9171,-2.9183,-2.904,-2.904,-2.904,0,-2.8954,-2.8984,-2.8952,-2.8979,-2.8984,-2.8936,-2.8973,-2.8973,-2.8973,-2.8977,-2.895,-2.8983,-2.8977,-2.9023,-2.9046,-2.9051,-2.9059,-2.9032,-2.9131,-2.9141,-2.915,-2.9179,-2.9191,-2.9044,-2.9044,-2.9043,-2.9043,0,-2.9054,-2.9076,-2.9107,-2.9107,-2.9116,-2.9149,-2.9121,-2.9134,-2.911,-2.9095,-2.9131,-2.9123,-2.9132,-2.9142,-2.912,-2.9185,-2.9169,-2.9138,-2.9088,-2.9168,-2.9195,-2.9207,-2.9051,-2.9049,-2.9048,-2.9047,0,0,-2.9194,-2.9176,-2.9187,-2.9186,-2.9177,-2.9193,-2.9224,-2.9233,-2.9243,-2.9246,-2.9269,-2.9294,-2.9264,-2.9268,-2.9245,-2.927,-2.9342,-2.9234,-2.9234,-2.9253,-2.9411,-2.9433,-2.9446,-2.9322,-2.9324,-2.9326,-2.941,0,-2.9282,-2.9332,-2.9303,-2.9357,-2.9376,-2.933,-2.9357,-2.9354,-2.9341,-2.9356,-2.9342,-2.9358,-2.9319,-2.932,-2.9343,-2.9329,-2.9373,-2.9323,-2.9342,-2.9343,-2.9341,-2.9461,-2.9484,-2.9564,-2.9421,-2.9422,-2.9424,0,-2.9392,-2.9397,-2.9452,-2.9439,-2.9445,-2.9469,-2.9475,-2.9489,-2.9486,-2.9474,-2.9479,-2.945,-2.9478,-2.9432,-2.947,-2.9436,-2.9443,-2.9438,-2.944,-2.9438,-2.9386,-2.946,-2.9589,-2.96,-2.9441,-2.9439,-2.9438,0,-2.9484,-2.9506,-2.9541,-2.9542,-2.9528,-2.9545,-2.954,-2.9534,-2.9541,-2.9546,-2.955,-2.956,-2.9564,-2.9572,-2.9546,-2.9515,-2.9587,-2.9539,-2.9577,-2.9578,-2.9592,-2.9591,-2.9722,-2.9602,-2.9601,-2.9601,-2.9601,0,-2.9584,-2.9619,-2.9582,-2.9603,-2.9641,-2.9609,-2.9647,-2.9637,-2.9632,-2.9651,-2.9614,-2.9632,-2.9599,-2.9614,-2.9594,-2.9628,-2.9631,-2.9622,-2.9615,-2.9623,-2.9624,-2.9625,-2.9618,-2.9604,-2.9604,-2.9603,-2.9602,0,-2.9693,-2.967,-2.9704,-2.9688,-2.9685,-2.9713,-2.9699,-2.9718,-2.9703,-2.9727,-2.9731,-2.9707,-2.9723,-2.9699,-2.9712,-2.9699,-2.9744,-2.9732,-2.9745,-2.974,-2.9779,-2.9775,-2.9912,-2.9928,-2.9801,-2.9802,-2.9803,0,-2.9757,-2.9782,-2.9768,-2.9778,-2.9774,-2.9791,-2.9797,-2.9767,-2.9775,-2.9773,-2.9792,-2.9805,-2.9812,-2.984,-2.9824,-2.9834,-2.9819,-2.9867,-2.982,-2.9826,-2.9816,-2.9814,-2.9815,-2.9875,-2.9877,-2.9878,-2.9879,0,-2.9872,-2.9859,-2.9869,-2.9876,-2.9884,-2.9889,-2.989,-2.99,-2.9868,-2.9879,-2.9894,-2.9901,-2.9914,-2.9926,-2.9932,-2.9927,-2.9897,-2.9894,-2.9903,-2.991,-2.9915,-2.991,-2.9768,-2.989,-2.9889,-2.9888,-2.9888,-2.9887,-2.9958,-2.9978,-2.997,-2.9983,-2.9981,-2.9983,-2.9999,-2.9986,-2.9998,-3.0005,-2.9987,-3.0007,-3.0002,-3.0006,-3.0005,-3.0019,-2.9998,-3.0012,-3.0015,-3.0018,-3.0023,-2.9916,-3.0021,-3.0021,-3.002,-3.002,-3.002,0,-3.0068,-3.0062,-3.0074,-3.0076,-3.0086,-3.0058,-3.0058,-3.0068,-3.0085,-3.0083,-3.0091,-3.0108,-3.012,-3.0105,-3.0115,-3.0129,-3.0116,-3.0132,-3.0129,-3.0128,-3.0042,-3.0032,-3.0143,-3.0143,-3.0143,-3.0143,-3.0143,-3.0143,-3.0127,-3.0158,-3.0144,-3.0174,-3.0167,-3.0185,-3.0187,-3.0188,-3.0186,-3.0206,-3.0216,-3.0206,-3.0199,-3.0207,-3.0217,-3.0212,-3.0216,-3.0237,-3.0227,-3.0147,-3.0135,-3.0123,-3.0113,-3.0239,-3.0239,-3.0312,-3.0312,-3.0313]},{"header":{"parameterUnit":"m.s-1","parameterCategory":1,"la1":30.2991,"la2":30.254,"lo1":-89.0895,"lo2":-89.0444,"dy":0.0017,"dx":0.0017,"nx":28,"ny":28,"refTime":"2023-09-26T21:00:00:Z","depth":0,"parameterNumber":3,"parameterNumberName":"V-component_of_WINDS"},"data":[0,0,0,0,0,0,0,0,0,0,0,0,0,0,0,0,0,0,0,0,0,0,0,0,0,0,0,0,0,0,0,0,0,0,0,0,0,0,0,0,0,0,0,0,0,0,0,0,0,0,0,0,0,0,0,0,0,0,0.3599,0.3597,0,0.342,0.3417,0.3415,0.3315,0.3315,0.3315,0.3314,0.3127,0.3123,0.3118,0,0,0,0,0,0,0,0,0,0,0,0,0,0.3853,0.3849,0.3599,0.3597,0.3595,0.342,0.3417,0.3415,0.3315,0.3315,0.3315,0.3314,0.3129,0.3123,0.3118,0,0,0,0,0,0,0,0,0,0,0,0,0,0.3715,0.3848,0.36,0.3524,0.3516,0.342,0.3417,0.3414,0.3315,0.3315,0.3315,0.3314,0.3131,0.3124,0.3117,0.3082,0,0,0.3095,0.3092,0,0,0,0,0,0,0,0,0.3723,0.3706,0.3537,0.3529,0.3519,0.3389,0.3438,0.3303,0.3316,0.3391,0.3314,0.3314,0.3215,0.3201,0.3168,0.3073,0.3065,0.3095,0.309,0.3087,0.3085,0,0,0,0,0,0,0,0.3733,0.3713,0.3528,0.3535,0.3524,0.3498,0.3478,0.3412,0.3308,0.3385,0.3377,0.3357,0.321,0.3175,0.3163,0.3063,0.3095,0.3089,0.3084,0.3082,0.293,0.293,0,0,0,0,0,0,0.3755,0.3722,0.3534,0.3523,0.3622,0.3494,0.3472,0.3432,0.3308,0.3289,0.3358,0.3353,0.3187,0.3171,0.3156,0.3106,0.3088,0.3081,0.3077,0.293,0.293,0.293,0,0,0,0,0,0,0.3761,0.3739,0.3541,0.362,0.3593,0.349,0.3446,0.3428,0.3393,0.3288,0.3268,0.3342,0.3186,0.3166,0.3101,0.3098,0.3078,0.3071,0.2929,0.293,0.293,0.3007,0,0,0,0,0,0,0.3769,0.3742,0.3728,0.3621,0.3589,0.3491,0.3446,0.3425,0.3382,0.3374,0.3268,0.3249,0.3184,0.3112,0.3094,0.3088,0.3066,0.2929,0.2929,0.293,0.3005,0.301,0.3015,0,0,0,0,0,0.3778,0.3757,0.3728,0.3706,0.357,0.3491,0.3472,0.3399,0.3382,0.3367,0.3299,0.3253,0.3102,0.3107,0.3085,0.3077,0.2929,0.2929,0.293,0.3002,0.3009,0.3015,0,0,0,0,0,0,0.3866,0.3741,0.3708,0.3651,0.3583,0.3474,0.3452,0.3409,0.3342,0.3338,0.3248,0.3225,0.3169,0.3116,0.3124,0.3037,0.301,0.3007,0.3073,0.3078,0.3084,0.3097,0.306,0,0,0,0,0,0.3879,0.3825,0.3719,0.3679,0.3647,0.3556,0.3519,0.3468,0.3392,0.3362,0.329,0.3218,0.3154,0.3113,0.3049,0.2997,0.2972,0.2981,0.2986,0.2991,0.2988,0.2956,0.2959,0.2931,0.2931,0.2931,0,0,0.3904,0.383,0.3801,0.3695,0.3636,0.3582,0.3532,0.3477,0.3435,0.3354,0.3288,0.3233,0.3146,0.3088,0.3059,0.3042,0.2991,0.2992,0.2996,0.2991,0.2957,0.296,0.2962,0.2932,0.2932,0.2932,0,0,0.3923,0.3862,0.3822,0.3764,0.3675,0.3615,0.3605,0.3503,0.3463,0.3397,0.3334,0.3284,0.3176,0.3116,0.3072,0.307,0.3024,0.3051,0.3078,0.3048,0.305,0.3051,0.305,0.305,0.3049,0.3049,0.3049,0,0.3966,0.3883,0.3807,0.3755,0.371,0.3635,0.3593,0.354,0.3434,0.3404,0.3388,0.3251,0.3188,0.3114,0.3114,0.3081,0.3066,0.3062,0.3056,0.3057,0.3057,0.3054,0.3054,0.3053,0.3053,0.3052,0.3052,0,0.3939,0.3883,0.3861,0.3762,0.3714,0.3668,0.3584,0.3544,0.3498,0.344,0.3373,0.3294,0.3212,0.3191,0.3145,0.3111,0.3104,0.3074,0.3045,0.3065,0.306,0.3059,0.3058,0.3057,0.3056,0.3055,0,0,0.4007,0.3867,0.386,0.3814,0.3711,0.3665,0.3615,0.3536,0.3504,0.3434,0.3389,0.33,0.3271,0.3221,0.3168,0.3142,0.3144,0.3114,0.311,0.3121,0.31,0.3123,0.3123,0.3114,0.3113,0.3113,0.3107,0,0.401,0.3918,0.3848,0.3781,0.3728,0.3656,0.3612,0.3544,0.3488,0.3434,0.3371,0.331,0.3277,0.3246,0.3217,0.315,0.3138,0.3149,0.307,0.3068,0.3092,0.312,0.3144,0.3142,0.3105,0.3104,0.3104,0,0.4001,0.3934,0.3863,0.3765,0.374,0.3702,0.3624,0.3573,0.3494,0.3455,0.34,0.3346,0.3289,0.3267,0.3187,0.3197,0.316,0.3122,0.312,0.3108,0.3086,0.3108,0.314,0.3139,0.3101,0.3101,0.3101,0,0.4056,0.3949,0.3892,0.3855,0.374,0.3715,0.3666,0.3586,0.3543,0.3474,0.3445,0.3371,0.333,0.3273,0.32,0.3191,0.3127,0.31,0.3092,0.3094,0.308,0.3082,0.3105,0.306,0.306,0.306,0.306,0,0.4066,0.4025,0.3915,0.388,0.3832,0.3752,0.3706,0.365,0.358,0.3533,0.3466,0.3423,0.3329,0.3274,0.3216,0.3158,0.314,0.3107,0.3091,0.3112,0.3116,0.3085,0.3083,0.306,0.306,0.306,0.306,0,0.4119,0.4044,0.3977,0.3874,0.3847,0.3816,0.3727,0.369,0.3631,0.3572,0.3553,0.346,0.3392,0.3314,0.3219,0.318,0.3126,0.3105,0.3153,0.3144,0.3141,0.3142,0.3144,0.314,0.31,0.31,0.3101,0,0.413,0.4097,0.399,0.3954,0.3907,0.3849,0.3805,0.3725,0.3682,0.359,0.3563,0.349,0.3427,0.3322,0.3245,0.3173,0.3148,0.3154,0.3136,0.3158,0.3146,0.3149,0.3145,0.3158,0.3159,0.316,0.316,0,0.4157,0.4121,0.4061,0.3987,0.3936,0.3874,0.381,0.3784,0.369,0.3645,0.3575,0.3527,0.3431,0.3358,0.3277,0.3225,0.3177,0.3167,0.3161,0.318,0.3209,0.3192,0.3165,0.3167,0.3166,0.3165,0.3165,0.3165,0.4187,0.4154,0.4074,0.4009,0.3952,0.3893,0.3853,0.379,0.373,0.3646,0.3603,0.3533,0.3454,0.334,0.329,0.3233,0.3217,0.3209,0.3207,0.3206,0.3211,0.322,0.3218,0.3218,0.3218,0.3217,0.3217,0,0.421,0.4155,0.4096,0.4007,0.3956,0.3917,0.3843,0.3802,0.3742,0.3673,0.3613,0.3532,0.3462,0.3381,0.3305,0.3276,0.3252,0.3259,0.3259,0.3248,0.323,0.3242,0.3279,0.3279,0.3279,0.3279,0.3279,0.3279,0.4215,0.4157,0.4112,0.4025,0.397,0.3902,0.3863,0.3808,0.3752,0.3665,0.3607,0.3555,0.3481,0.3399,0.3333,0.3311,0.3285,0.3298,0.327,0.3254,0.3249,0.3244,0.3255,0.3294,0.3294,0.3292,0.3292,0.3292]}]]